Year,Month,Day,Hour,Minute,Value (Times are PST for temperature in C)
2018,06,11,00,00,9.10
2018,06,11,00,01,9.10
2018,06,11,00,02,9.00
2018,06,11,00,03,9.00
2018,06,11,00,04,9.00
2018,06,11,00,05,8.90
2018,06,11,00,06,8.90
2018,06,11,00,07,8.80
2018,06,11,00,08,8.80
2018,06,11,00,09,8.70
2018,06,11,00,10,8.70
2018,06,11,00,11,8.70
2018,06,11,00,12,8.60
2018,06,11,00,13,8.60
2018,06,11,00,14,8.60
2018,06,11,00,15,8.50
2018,06,11,00,16,8.50
2018,06,11,00,17,8.50
2018,06,11,00,18,8.40
2018,06,11,00,19,8.40
2018,06,11,00,20,8.40
2018,06,11,00,21,8.40
2018,06,11,00,22,8.30
2018,06,11,00,23,8.30
2018,06,11,00,24,8.30
2018,06,11,00,25,8.30
2018,06,11,00,26,8.20
2018,06,11,00,27,8.20
2018,06,11,00,28,8.20
2018,06,11,00,29,8.20
2018,06,11,00,30,8.10
2018,06,11,00,31,8.10
2018,06,11,00,32,8.10
2018,06,11,00,33,8.10
2018,06,11,00,34,8.00
2018,06,11,00,35,8.00
2018,06,11,00,36,7.90
2018,06,11,00,37,7.90
2018,06,11,00,38,7.90
2018,06,11,00,39,7.90
2018,06,11,00,40,7.90
2018,06,11,00,41,7.80
2018,06,11,00,42,7.80
2018,06,11,00,43,7.80
2018,06,11,00,44,7.80
2018,06,11,00,45,7.80
2018,06,11,00,46,7.70
2018,06,11,00,47,7.70
2018,06,11,00,48,7.70
2018,06,11,00,49,7.70
2018,06,11,00,50,7.70
2018,06,11,00,51,7.60
2018,06,11,00,52,7.60
2018,06,11,00,53,7.60
2018,06,11,00,54,7.60
2018,06,11,00,55,7.60
2018,06,11,00,56,7.60
2018,06,11,00,57,7.60
2018,06,11,00,58,7.60
2018,06,11,00,59,7.50
2018,06,11,01,00,7.50
2018,06,11,01,01,7.50
2018,06,11,01,02,7.50
2018,06,11,01,03,7.50
2018,06,11,01,04,7.50
2018,06,11,01,05,7.50
2018,06,11,01,06,7.40
2018,06,11,01,07,7.40
2018,06,11,01,08,7.40
2018,06,11,01,09,7.40
2018,06,11,01,10,7.40
2018,06,11,01,11,7.40
2018,06,11,01,12,7.40
2018,06,11,01,13,7.40
2018,06,11,01,14,7.40
2018,06,11,01,15,7.40
2018,06,11,01,16,7.30
2018,06,11,01,17,7.30
2018,06,11,01,18,7.30
2018,06,11,01,19,7.30
2018,06,11,01,20,7.30
2018,06,11,01,21,7.30
2018,06,11,01,22,7.30
2018,06,11,01,23,7.30
2018,06,11,01,24,7.20
2018,06,11,01,25,7.20
2018,06,11,01,26,7.20
2018,06,11,01,27,7.20
2018,06,11,01,28,7.20
2018,06,11,01,29,7.20
2018,06,11,01,30,7.30
2018,06,11,01,31,7.30
2018,06,11,01,32,7.30
2018,06,11,01,33,7.30
2018,06,11,01,34,7.30
2018,06,11,01,35,7.30
2018,06,11,01,36,7.30
2018,06,11,01,37,7.30
2018,06,11,01,38,7.30
2018,06,11,01,39,7.40
2018,06,11,01,40,7.40
2018,06,11,01,41,7.40
2018,06,11,01,42,7.40
2018,06,11,01,43,7.40
2018,06,11,01,44,7.40
2018,06,11,01,45,7.50
2018,06,11,01,46,7.50
2018,06,11,01,47,7.50
2018,06,11,01,48,7.60
2018,06,11,01,49,7.60
2018,06,11,01,50,7.60
2018,06,11,01,51,7.60
2018,06,11,01,52,7.60
2018,06,11,01,53,7.60
2018,06,11,01,54,7.60
2018,06,11,01,55,7.60
2018,06,11,01,56,7.60
2018,06,11,01,57,7.50
2018,06,11,01,58,7.60
2018,06,11,01,59,7.60
2018,06,11,02,00,7.60
2018,06,11,02,01,7.60
2018,06,11,02,02,7.60
2018,06,11,02,03,7.60
2018,06,11,02,04,7.60
2018,06,11,02,05,7.60
2018,06,11,02,06,7.70
2018,06,11,02,07,7.70
2018,06,11,02,08,7.70
2018,06,11,02,09,7.70
2018,06,11,02,10,7.70
2018,06,11,02,11,7.70
2018,06,11,02,12,7.70
2018,06,11,02,13,7.70
2018,06,11,02,14,7.70
2018,06,11,02,15,7.70
2018,06,11,02,16,7.70
2018,06,11,02,17,7.70
2018,06,11,02,18,7.70
2018,06,11,02,19,7.70
2018,06,11,02,20,7.70
2018,06,11,02,21,7.70
2018,06,11,02,22,7.70
2018,06,11,02,23,7.70
2018,06,11,02,24,7.70
2018,06,11,02,25,7.70
2018,06,11,02,26,7.70
2018,06,11,02,27,7.70
2018,06,11,02,28,7.70
2018,06,11,02,29,7.70
2018,06,11,02,30,7.70
2018,06,11,02,31,7.70
2018,06,11,02,32,7.70
2018,06,11,02,33,7.70
2018,06,11,02,34,7.80
2018,06,11,02,35,7.80
2018,06,11,02,36,7.80
2018,06,11,02,37,7.80
2018,06,11,02,38,7.80
2018,06,11,02,39,7.80
2018,06,11,02,40,7.80
2018,06,11,02,41,7.80
2018,06,11,02,42,7.80
2018,06,11,02,43,7.80
2018,06,11,02,44,7.80
2018,06,11,02,45,7.80
2018,06,11,02,46,7.80
2018,06,11,02,47,7.80
2018,06,11,02,48,7.70
2018,06,11,02,49,7.70
2018,06,11,02,50,7.70
2018,06,11,02,51,7.70
2018,06,11,02,52,7.70
2018,06,11,02,53,7.70
2018,06,11,02,54,7.60
2018,06,11,02,55,7.60
2018,06,11,02,56,7.60
2018,06,11,02,57,7.60
2018,06,11,02,58,7.60
2018,06,11,02,59,7.60
2018,06,11,03,00,7.50
2018,06,11,03,01,7.50
2018,06,11,03,02,7.50
2018,06,11,03,03,7.40
2018,06,11,03,04,7.40
2018,06,11,03,05,7.40
2018,06,11,03,06,7.40
2018,06,11,03,07,7.50
2018,06,11,03,08,7.50
2018,06,11,03,09,7.50
2018,06,11,03,10,7.50
2018,06,11,03,11,7.50
2018,06,11,03,12,7.50
2018,06,11,03,13,7.50
2018,06,11,03,14,7.50
2018,06,11,03,15,7.40
2018,06,11,03,16,7.40
2018,06,11,03,17,7.40
2018,06,11,03,18,7.40
2018,06,11,03,19,7.40
2018,06,11,03,20,7.40
2018,06,11,03,21,7.40
2018,06,11,03,22,7.40
2018,06,11,03,23,7.30
2018,06,11,03,24,7.30
2018,06,11,03,25,7.30
2018,06,11,03,26,7.30
2018,06,11,03,27,7.30
2018,06,11,03,28,7.30
2018,06,11,03,29,7.30
2018,06,11,03,30,7.30
2018,06,11,03,31,7.30
2018,06,11,03,32,7.30
2018,06,11,03,33,7.30
2018,06,11,03,34,7.30
2018,06,11,03,35,7.30
2018,06,11,03,36,7.30
2018,06,11,03,37,7.30
2018,06,11,03,38,7.30
2018,06,11,03,39,7.30
2018,06,11,03,40,7.30
2018,06,11,03,41,7.30
2018,06,11,03,42,7.30
2018,06,11,03,43,7.30
2018,06,11,03,44,7.30
2018,06,11,03,45,7.30
2018,06,11,03,46,7.30
2018,06,11,03,47,7.30
2018,06,11,03,48,7.30
2018,06,11,03,49,7.30
2018,06,11,03,50,7.30
2018,06,11,03,51,7.30
2018,06,11,03,52,7.30
2018,06,11,03,53,7.30
2018,06,11,03,54,7.30
2018,06,11,03,55,7.30
2018,06,11,03,56,7.30
2018,06,11,03,57,7.30
2018,06,11,03,58,7.30
2018,06,11,03,59,7.30
2018,06,11,04,00,7.30
2018,06,11,04,01,7.30
2018,06,11,04,02,7.20
2018,06,11,04,03,7.20
2018,06,11,04,04,7.20
2018,06,11,04,05,7.20
2018,06,11,04,06,7.20
2018,06,11,04,07,7.20
2018,06,11,04,08,7.30
2018,06,11,04,09,7.30
2018,06,11,04,10,7.30
2018,06,11,04,11,7.30
2018,06,11,04,12,7.30
2018,06,11,04,13,7.30
2018,06,11,04,14,7.30
2018,06,11,04,15,7.30
2018,06,11,04,16,7.30
2018,06,11,04,17,7.30
2018,06,11,04,18,7.30
2018,06,11,04,19,7.30
2018,06,11,04,20,7.30
2018,06,11,04,21,7.30
2018,06,11,04,22,7.30
2018,06,11,04,23,7.30
2018,06,11,04,24,7.30
2018,06,11,04,25,7.30
2018,06,11,04,26,7.20
2018,06,11,04,27,7.20
2018,06,11,04,28,7.20
2018,06,11,04,29,7.20
2018,06,11,04,30,7.20
2018,06,11,04,31,7.20
2018,06,11,04,32,7.20
2018,06,11,04,33,7.20
2018,06,11,04,34,7.20
2018,06,11,04,35,7.20
2018,06,11,04,36,7.20
2018,06,11,04,37,7.20
2018,06,11,04,38,7.20
2018,06,11,04,39,7.10
2018,06,11,04,40,7.10
2018,06,11,04,41,7.10
2018,06,11,04,42,7.10
2018,06,11,04,43,7.10
2018,06,11,04,44,7.10
2018,06,11,04,45,7.10
2018,06,11,04,46,7.10
2018,06,11,04,47,7.00
2018,06,11,04,48,7.00
2018,06,11,04,49,7.00
2018,06,11,04,50,7.00
2018,06,11,04,51,6.90
2018,06,11,04,52,6.90
2018,06,11,04,53,6.90
2018,06,11,04,54,6.90
2018,06,11,04,55,6.90
2018,06,11,04,56,6.90
2018,06,11,04,57,6.90
2018,06,11,04,58,6.90
2018,06,11,04,59,6.90
2018,06,11,05,00,6.90
2018,06,11,05,01,6.80
2018,06,11,05,02,6.80
2018,06,11,05,03,6.80
2018,06,11,05,04,6.80
2018,06,11,05,05,6.80
2018,06,11,05,06,6.80
2018,06,11,05,07,6.80
2018,06,11,05,08,6.80
2018,06,11,05,09,6.80
2018,06,11,05,10,6.80
2018,06,11,05,11,6.80
2018,06,11,05,12,6.80
2018,06,11,05,13,6.80
2018,06,11,05,14,6.70
2018,06,11,05,15,6.70
2018,06,11,05,16,6.70
2018,06,11,05,17,6.70
2018,06,11,05,18,6.70
2018,06,11,05,19,6.70
2018,06,11,05,20,6.70
2018,06,11,05,21,6.70
2018,06,11,05,22,6.60
2018,06,11,05,23,6.60
2018,06,11,05,24,6.60
2018,06,11,05,25,6.60
2018,06,11,05,26,6.50
2018,06,11,05,27,6.50
2018,06,11,05,28,6.60
2018,06,11,05,29,6.60
2018,06,11,05,30,6.60
2018,06,11,05,31,6.60
2018,06,11,05,32,6.60
2018,06,11,05,33,6.60
2018,06,11,05,34,6.60
2018,06,11,05,35,6.60
2018,06,11,05,36,6.60
2018,06,11,05,37,6.60
2018,06,11,05,38,6.60
2018,06,11,05,39,6.60
2018,06,11,05,40,6.70
2018,06,11,05,41,6.70
2018,06,11,05,42,6.70
2018,06,11,05,43,6.70
2018,06,11,05,44,6.80
2018,06,11,05,45,6.80
2018,06,11,05,46,6.90
2018,06,11,05,47,6.90
2018,06,11,05,48,6.90
2018,06,11,05,49,6.90
2018,06,11,05,50,7.00
2018,06,11,05,51,7.00
2018,06,11,05,52,7.00
2018,06,11,05,53,7.00
2018,06,11,05,54,7.00
2018,06,11,05,55,7.00
2018,06,11,05,56,7.00
2018,06,11,05,57,7.00
2018,06,11,05,58,7.00
2018,06,11,05,59,7.00
2018,06,11,06,00,7.00
2018,06,11,06,01,7.00
2018,06,11,06,02,7.00
2018,06,11,06,03,7.00
2018,06,11,06,04,6.90
2018,06,11,06,05,6.90
2018,06,11,06,06,6.90
2018,06,11,06,07,6.90
2018,06,11,06,08,6.90
2018,06,11,06,09,6.90
2018,06,11,06,10,6.90
2018,06,11,06,11,6.90
2018,06,11,06,12,6.90
2018,06,11,06,13,6.90
2018,06,11,06,14,6.90
2018,06,11,06,15,6.90
2018,06,11,06,16,7.00
2018,06,11,06,17,7.00
2018,06,11,06,18,7.00
2018,06,11,06,19,7.00
2018,06,11,06,20,7.10
2018,06,11,06,21,7.10
2018,06,11,06,22,7.10
2018,06,11,06,23,7.10
2018,06,11,06,24,7.10
2018,06,11,06,25,7.20
2018,06,11,06,26,7.20
2018,06,11,06,27,7.20
2018,06,11,06,28,7.20
2018,06,11,06,29,7.30
2018,06,11,06,30,7.30
2018,06,11,06,31,7.40
2018,06,11,06,32,7.40
2018,06,11,06,33,7.50
2018,06,11,06,34,7.50
2018,06,11,06,35,7.60
2018,06,11,06,36,7.60
2018,06,11,06,37,7.70
2018,06,11,06,38,7.70
2018,06,11,06,39,7.80
2018,06,11,06,40,7.80
2018,06,11,06,41,7.90
2018,06,11,06,42,7.90
2018,06,11,06,43,8.00
2018,06,11,06,44,8.10
2018,06,11,06,45,8.10
2018,06,11,06,46,8.20
2018,06,11,06,47,8.30
2018,06,11,06,48,8.30
2018,06,11,06,49,8.40
2018,06,11,06,50,8.40
2018,06,11,06,51,8.50
2018,06,11,06,52,8.60
2018,06,11,06,53,8.60
2018,06,11,06,54,8.70
2018,06,11,06,55,8.80
2018,06,11,06,56,8.90
2018,06,11,06,57,8.90
2018,06,11,06,58,9.00
2018,06,11,06,59,9.10
2018,06,11,07,00,9.20
2018,06,11,07,01,9.20
2018,06,11,07,02,9.30
2018,06,11,07,03,9.40
2018,06,11,07,04,9.40
2018,06,11,07,05,9.50
2018,06,11,07,06,9.60
2018,06,11,07,07,9.60
2018,06,11,07,08,9.70
2018,06,11,07,09,9.70
2018,06,11,07,10,9.70
2018,06,11,07,11,9.80
2018,06,11,07,12,9.80
2018,06,11,07,13,9.80
2018,06,11,07,14,9.80
2018,06,11,07,15,9.90
2018,06,11,07,16,9.90
2018,06,11,07,17,9.90
2018,06,11,07,18,10.00
2018,06,11,07,19,10.00
2018,06,11,07,20,10.10
2018,06,11,07,21,10.10
2018,06,11,07,22,10.20
2018,06,11,07,23,10.20
2018,06,11,07,24,10.30
2018,06,11,07,25,10.30
2018,06,11,07,26,10.30
2018,06,11,07,27,10.30
2018,06,11,07,28,10.40
2018,06,11,07,29,10.40
2018,06,11,07,30,10.40
2018,06,11,07,31,10.40
2018,06,11,07,32,10.40
2018,06,11,07,33,10.40
2018,06,11,07,34,10.50
2018,06,11,07,35,10.50
2018,06,11,07,36,10.50
2018,06,11,07,37,10.50
2018,06,11,07,38,10.50
2018,06,11,07,39,10.60
2018,06,11,07,40,10.60
2018,06,11,07,41,10.60
2018,06,11,07,42,10.60
2018,06,11,07,43,10.60
2018,06,11,07,44,10.70
2018,06,11,07,45,10.70
2018,06,11,07,46,10.70
2018,06,11,07,47,10.70
2018,06,11,07,48,10.70
2018,06,11,07,49,10.80
2018,06,11,07,50,10.80
2018,06,11,07,51,10.80
2018,06,11,07,52,10.90
2018,06,11,07,53,10.90
2018,06,11,07,54,11.00
2018,06,11,07,55,11.10
2018,06,11,07,56,11.10
2018,06,11,07,57,11.10
2018,06,11,07,58,11.20
2018,06,11,07,59,11.20
2018,06,11,08,00,11.20
2018,06,11,08,01,11.20
2018,06,11,08,02,11.30
2018,06,11,08,03,11.30
2018,06,11,08,04,11.30
2018,06,11,08,05,11.30
2018,06,11,08,06,11.30
2018,06,11,08,07,11.40
2018,06,11,08,08,11.40
2018,06,11,08,09,11.50
2018,06,11,08,10,11.50
2018,06,11,08,11,11.50
2018,06,11,08,12,11.50
2018,06,11,08,13,11.50
2018,06,11,08,14,11.50
2018,06,11,08,15,11.50
2018,06,11,08,16,11.60
2018,06,11,08,17,11.60
2018,06,11,08,18,11.60
2018,06,11,08,19,11.60
2018,06,11,08,20,11.60
2018,06,11,08,21,11.60
2018,06,11,08,22,11.60
2018,06,11,08,23,11.70
2018,06,11,08,24,11.70
2018,06,11,08,25,11.70
2018,06,11,08,26,11.80
2018,06,11,08,27,11.80
2018,06,11,08,28,11.80
2018,06,11,08,29,11.90
2018,06,11,08,30,11.90
2018,06,11,08,31,12.00
2018,06,11,08,32,12.00
2018,06,11,08,33,12.10
2018,06,11,08,34,12.00
2018,06,11,08,35,12.00
2018,06,11,08,36,12.00
2018,06,11,08,37,12.00
2018,06,11,08,38,12.00
2018,06,11,08,39,12.10
2018,06,11,08,40,12.10
2018,06,11,08,41,12.10
2018,06,11,08,42,12.00
2018,06,11,08,43,12.10
2018,06,11,08,44,12.10
2018,06,11,08,45,12.20
2018,06,11,08,46,12.20
2018,06,11,08,47,12.20
2018,06,11,08,48,12.30
2018,06,11,08,49,12.40
2018,06,11,08,50,12.40
2018,06,11,08,51,12.40
2018,06,11,08,52,12.40
2018,06,11,08,53,12.40
2018,06,11,08,54,12.40
2018,06,11,08,55,12.40
2018,06,11,08,56,12.30
2018,06,11,08,57,12.40
2018,06,11,08,58,12.40
2018,06,11,08,59,12.50
2018,06,11,09,00,12.50
2018,06,11,09,01,12.60
2018,06,11,09,02,12.70
2018,06,11,09,03,12.70
2018,06,11,09,04,12.70
2018,06,11,09,05,12.70
2018,06,11,09,06,12.70
2018,06,11,09,07,12.80
2018,06,11,09,08,12.90
2018,06,11,09,09,13.00
2018,06,11,09,10,13.00
2018,06,11,09,11,13.10
2018,06,11,09,12,13.10
2018,06,11,09,13,13.10
2018,06,11,09,14,13.20
2018,06,11,09,15,13.20
2018,06,11,09,16,13.30
2018,06,11,09,17,13.30
2018,06,11,09,18,13.30
2018,06,11,09,19,13.30
2018,06,11,09,20,13.40
2018,06,11,09,21,13.50
2018,06,11,09,22,13.50
2018,06,11,09,23,13.60
2018,06,11,09,24,13.60
2018,06,11,09,25,13.60
2018,06,11,09,26,13.70
2018,06,11,09,27,13.70
2018,06,11,09,28,13.70
2018,06,11,09,29,13.80
2018,06,11,09,30,13.80
2018,06,11,09,31,13.80
2018,06,11,09,32,13.80
2018,06,11,09,33,13.80
2018,06,11,09,34,13.80
2018,06,11,09,35,13.80
2018,06,11,09,36,13.80
2018,06,11,09,37,13.80
2018,06,11,09,38,13.80
2018,06,11,09,39,13.90
2018,06,11,09,40,13.90
2018,06,11,09,41,13.90
2018,06,11,09,42,13.90
2018,06,11,09,43,13.90
2018,06,11,09,44,14.00
2018,06,11,09,45,13.90
2018,06,11,09,46,13.90
2018,06,11,09,47,13.90
2018,06,11,09,48,13.90
2018,06,11,09,49,13.90
2018,06,11,09,50,13.90
2018,06,11,09,51,13.90
2018,06,11,09,52,13.90
2018,06,11,09,53,14.00
2018,06,11,09,54,14.00
2018,06,11,09,55,14.10
2018,06,11,09,56,14.10
2018,06,11,09,57,14.20
2018,06,11,09,58,14.20
2018,06,11,09,59,14.30
2018,06,11,10,00,14.40
2018,06,11,10,01,14.50
2018,06,11,10,02,14.50
2018,06,11,10,03,14.60
2018,06,11,10,04,14.60
2018,06,11,10,05,14.50
2018,06,11,10,06,14.50
2018,06,11,10,07,14.40
2018,06,11,10,08,14.30
2018,06,11,10,09,14.30
2018,06,11,10,10,14.30
2018,06,11,10,11,14.30
2018,06,11,10,12,14.40
2018,06,11,10,13,14.40
2018,06,11,10,14,14.40
2018,06,11,10,15,14.40
2018,06,11,10,16,14.50
2018,06,11,10,17,14.50
2018,06,11,10,18,14.60
2018,06,11,10,19,14.60
2018,06,11,10,20,14.60
2018,06,11,10,21,14.60
2018,06,11,10,22,14.60
2018,06,11,10,23,14.60
2018,06,11,10,24,14.70
2018,06,11,10,25,14.70
2018,06,11,10,26,14.70
2018,06,11,10,27,14.80
2018,06,11,10,28,14.80
2018,06,11,10,29,14.80
2018,06,11,10,30,14.80
2018,06,11,10,31,14.80
2018,06,11,10,32,14.80
2018,06,11,10,33,14.80
2018,06,11,10,34,14.80
2018,06,11,10,35,14.80
2018,06,11,10,36,14.80
2018,06,11,10,37,14.80
2018,06,11,10,38,14.80
2018,06,11,10,39,14.80
2018,06,11,10,40,14.70
2018,06,11,10,41,14.70
2018,06,11,10,42,14.70
2018,06,11,10,43,14.70
2018,06,11,10,44,14.70
2018,06,11,10,45,14.70
2018,06,11,10,46,14.70
2018,06,11,10,47,14.70
2018,06,11,10,48,14.70
2018,06,11,10,49,14.70
2018,06,11,10,50,14.80
2018,06,11,10,51,14.80
2018,06,11,10,52,14.80
2018,06,11,10,53,14.90
2018,06,11,10,54,15.00
2018,06,11,10,55,15.10
2018,06,11,10,56,15.10
2018,06,11,10,57,15.20
2018,06,11,10,58,15.20
2018,06,11,10,59,15.20
2018,06,11,11,00,15.20
2018,06,11,11,01,15.20
2018,06,11,11,02,15.20
2018,06,11,11,03,15.30
2018,06,11,11,04,15.30
2018,06,11,11,05,15.40
2018,06,11,11,06,15.40
2018,06,11,11,07,15.40
2018,06,11,11,08,15.30
2018,06,11,11,09,15.30
2018,06,11,11,10,15.40
2018,06,11,11,11,15.40
2018,06,11,11,12,15.40
2018,06,11,11,13,15.40
2018,06,11,11,14,15.40
2018,06,11,11,15,15.30
2018,06,11,11,16,15.30
2018,06,11,11,17,15.30
2018,06,11,11,18,15.30
2018,06,11,11,19,15.40
2018,06,11,11,20,15.40
2018,06,11,11,21,15.40
2018,06,11,11,22,15.30
2018,06,11,11,23,15.30
2018,06,11,11,24,15.30
2018,06,11,11,25,15.30
2018,06,11,11,26,15.40
2018,06,11,11,27,15.30
2018,06,11,11,28,15.30
2018,06,11,11,29,15.30
2018,06,11,11,30,15.30
2018,06,11,11,31,15.30
2018,06,11,11,32,15.30
2018,06,11,11,33,15.20
2018,06,11,11,34,15.30
2018,06,11,11,35,15.30
2018,06,11,11,36,15.30
2018,06,11,11,37,15.30
2018,06,11,11,38,15.30
2018,06,11,11,39,15.30
2018,06,11,11,40,15.20
2018,06,11,11,41,15.20
2018,06,11,11,42,15.10
2018,06,11,11,43,15.20
2018,06,11,11,44,15.20
2018,06,11,11,45,15.20
2018,06,11,11,46,15.20
2018,06,11,11,47,15.20
2018,06,11,11,48,15.30
2018,06,11,11,49,15.30
2018,06,11,11,50,15.30
2018,06,11,11,51,15.30
2018,06,11,11,52,15.20
2018,06,11,11,53,15.20
2018,06,11,11,54,15.20
2018,06,11,11,55,15.20
2018,06,11,11,56,15.20
2018,06,11,11,57,15.30
2018,06,11,11,58,15.30
2018,06,11,11,59,15.30
2018,06,11,12,00,15.40
2018,06,11,12,01,15.50
2018,06,11,12,02,15.50
2018,06,11,12,03,15.60
2018,06,11,12,04,15.60
2018,06,11,12,05,15.60
2018,06,11,12,06,15.60
2018,06,11,12,07,15.70
2018,06,11,12,08,15.80
2018,06,11,12,09,15.80
2018,06,11,12,10,15.80
2018,06,11,12,11,15.80
2018,06,11,12,12,15.80
2018,06,11,12,13,15.80
2018,06,11,12,14,15.90
2018,06,11,12,15,15.90
2018,06,11,12,16,16.00
2018,06,11,12,17,16.00
2018,06,11,12,18,16.10
2018,06,11,12,19,16.00
2018,06,11,12,20,16.00
2018,06,11,12,21,15.90
2018,06,11,12,22,15.80
2018,06,11,12,23,15.80
2018,06,11,12,24,15.80
2018,06,11,12,25,15.80
2018,06,11,12,26,15.70
2018,06,11,12,27,15.70
2018,06,11,12,28,15.70
2018,06,11,12,29,15.70
2018,06,11,12,30,15.70
2018,06,11,12,31,15.70
2018,06,11,12,32,15.70
2018,06,11,12,33,15.70
2018,06,11,12,34,15.70
2018,06,11,12,35,15.70
2018,06,11,12,36,15.70
2018,06,11,12,37,15.70
2018,06,11,12,38,15.70
2018,06,11,12,39,15.60
2018,06,11,12,40,15.60
2018,06,11,12,41,15.60
2018,06,11,12,42,15.60
2018,06,11,12,43,15.60
2018,06,11,12,44,15.60
2018,06,11,12,45,15.60
2018,06,11,12,46,15.70
2018,06,11,12,47,15.70
2018,06,11,12,48,15.70
2018,06,11,12,49,15.70
2018,06,11,12,50,15.70
2018,06,11,12,51,15.70
2018,06,11,12,52,15.80
2018,06,11,12,53,15.90
2018,06,11,12,54,16.00
2018,06,11,12,55,16.10
2018,06,11,12,56,16.20
2018,06,11,12,57,16.30
2018,06,11,12,58,16.30
2018,06,11,12,59,16.40
2018,06,11,13,00,16.40
2018,06,11,13,01,16.40
2018,06,11,13,02,16.40
2018,06,11,13,03,16.30
2018,06,11,13,04,16.30
2018,06,11,13,05,16.20
2018,06,11,13,06,16.20
2018,06,11,13,07,16.10
2018,06,11,13,08,16.10
2018,06,11,13,09,16.10
2018,06,11,13,10,16.20
2018,06,11,13,11,16.20
2018,06,11,13,12,16.30
2018,06,11,13,13,16.30
2018,06,11,13,14,16.20
2018,06,11,13,15,16.20
2018,06,11,13,16,16.20
2018,06,11,13,17,16.20
2018,06,11,13,18,16.10
2018,06,11,13,19,16.00
2018,06,11,13,20,16.00
2018,06,11,13,21,16.00
2018,06,11,13,22,16.00
2018,06,11,13,23,16.00
2018,06,11,13,24,16.00
2018,06,11,13,25,15.90
2018,06,11,13,26,15.90
2018,06,11,13,27,15.90
2018,06,11,13,28,15.80
2018,06,11,13,29,15.90
2018,06,11,13,30,15.90
2018,06,11,13,31,15.90
2018,06,11,13,32,16.00
2018,06,11,13,33,16.00
2018,06,11,13,34,16.00
2018,06,11,13,35,16.10
2018,06,11,13,36,16.10
2018,06,11,13,37,16.10
2018,06,11,13,38,16.10
2018,06,11,13,39,16.10
2018,06,11,13,40,16.20
2018,06,11,13,41,16.30
2018,06,11,13,42,16.40
2018,06,11,13,43,16.40
2018,06,11,13,44,16.40
2018,06,11,13,45,16.40
2018,06,11,13,46,16.40
2018,06,11,13,47,16.40
2018,06,11,13,48,16.40
2018,06,11,13,49,16.30
2018,06,11,13,50,16.30
2018,06,11,13,51,16.20
2018,06,11,13,52,16.20
2018,06,11,13,53,16.30
2018,06,11,13,54,16.30
2018,06,11,13,55,16.30
2018,06,11,13,56,16.30
2018,06,11,13,57,16.40
2018,06,11,13,58,16.40
2018,06,11,13,59,16.40
2018,06,11,14,00,16.50
2018,06,11,14,01,16.60
2018,06,11,14,02,16.70
2018,06,11,14,03,16.70
2018,06,11,14,04,16.70
2018,06,11,14,05,16.70
2018,06,11,14,06,16.70
2018,06,11,14,07,16.70
2018,06,11,14,08,16.70
2018,06,11,14,09,16.70
2018,06,11,14,10,16.80
2018,06,11,14,11,16.80
2018,06,11,14,12,16.80
2018,06,11,14,13,16.80
2018,06,11,14,14,16.80
2018,06,11,14,15,16.90
2018,06,11,14,16,16.90
2018,06,11,14,17,16.90
2018,06,11,14,18,16.90
2018,06,11,14,19,16.90
2018,06,11,14,20,16.90
2018,06,11,14,21,16.90
2018,06,11,14,22,17.00
2018,06,11,14,23,17.00
2018,06,11,14,24,17.00
2018,06,11,14,25,17.00
2018,06,11,14,26,17.10
2018,06,11,14,27,17.10
2018,06,11,14,28,17.20
2018,06,11,14,29,17.20
2018,06,11,14,30,17.20
2018,06,11,14,31,17.20
2018,06,11,14,32,17.20
2018,06,11,14,33,17.20
2018,06,11,14,34,17.30
2018,06,11,14,35,17.40
2018,06,11,14,36,17.50
2018,06,11,14,37,17.60
2018,06,11,14,38,17.60
2018,06,11,14,39,17.60
2018,06,11,14,40,17.60
2018,06,11,14,41,17.60
2018,06,11,14,42,17.60
2018,06,11,14,43,17.60
2018,06,11,14,44,17.50
2018,06,11,14,45,17.50
2018,06,11,14,46,17.40
2018,06,11,14,47,17.40
2018,06,11,14,48,17.40
2018,06,11,14,49,17.40
2018,06,11,14,50,17.40
2018,06,11,14,51,17.40
2018,06,11,14,52,17.50
2018,06,11,14,53,17.60
2018,06,11,14,54,17.60
2018,06,11,14,55,17.70
2018,06,11,14,56,17.70
2018,06,11,14,57,17.70
2018,06,11,14,58,17.70
2018,06,11,14,59,17.80
2018,06,11,15,00,17.80
2018,06,11,15,01,17.80
2018,06,11,15,02,17.80
2018,06,11,15,03,17.90
2018,06,11,15,04,18.00
2018,06,11,15,05,18.10
2018,06,11,15,06,18.20
2018,06,11,15,07,18.20
2018,06,11,15,08,18.20
2018,06,11,15,09,18.10
2018,06,11,15,10,18.10
2018,06,11,15,11,18.00
2018,06,11,15,12,17.90
2018,06,11,15,13,17.80
2018,06,11,15,14,17.70
2018,06,11,15,15,17.70
2018,06,11,15,16,17.60
2018,06,11,15,17,17.60
2018,06,11,15,18,17.60
2018,06,11,15,19,17.60
2018,06,11,15,20,17.60
2018,06,11,15,21,17.70
2018,06,11,15,22,17.70
2018,06,11,15,23,17.80
2018,06,11,15,24,17.90
2018,06,11,15,25,17.90
2018,06,11,15,26,17.90
2018,06,11,15,27,17.90
2018,06,11,15,28,17.80
2018,06,11,15,29,17.70
2018,06,11,15,30,17.70
2018,06,11,15,31,17.70
2018,06,11,15,32,17.60
2018,06,11,15,33,17.60
2018,06,11,15,34,17.50
2018,06,11,15,35,17.40
2018,06,11,15,36,17.40
2018,06,11,15,37,17.40
2018,06,11,15,38,17.40
2018,06,11,15,39,17.40
2018,06,11,15,40,17.40
2018,06,11,15,41,17.40
2018,06,11,15,42,17.40
2018,06,11,15,43,17.40
2018,06,11,15,44,17.40
2018,06,11,15,45,17.50
2018,06,11,15,46,17.50
2018,06,11,15,47,17.60
2018,06,11,15,48,17.70
2018,06,11,15,49,17.70
2018,06,11,15,50,17.80
2018,06,11,15,51,17.80
2018,06,11,15,52,17.80
2018,06,11,15,53,17.80
2018,06,11,15,54,17.80
2018,06,11,15,55,17.80
2018,06,11,15,56,17.80
2018,06,11,15,57,17.70
2018,06,11,15,58,17.70
2018,06,11,15,59,17.70
2018,06,11,16,00,17.70
2018,06,11,16,01,17.70
2018,06,11,16,02,17.70
2018,06,11,16,03,17.80
2018,06,11,16,04,17.90
2018,06,11,16,05,17.90
2018,06,11,16,06,17.80
2018,06,11,16,07,17.90
2018,06,11,16,08,17.90
2018,06,11,16,09,17.90
2018,06,11,16,10,17.80
2018,06,11,16,11,17.80
2018,06,11,16,12,17.80
2018,06,11,16,13,17.90
2018,06,11,16,14,18.00
2018,06,11,16,15,18.00
2018,06,11,16,16,18.10
2018,06,11,16,17,18.10
2018,06,11,16,18,18.20
2018,06,11,16,19,18.20
2018,06,11,16,20,18.20
2018,06,11,16,21,18.30
2018,06,11,16,22,18.30
2018,06,11,16,23,18.40
2018,06,11,16,24,18.40
2018,06,11,16,25,18.30
2018,06,11,16,26,18.30
2018,06,11,16,27,18.20
2018,06,11,16,28,18.10
2018,06,11,16,29,18.10
2018,06,11,16,30,18.00
2018,06,11,16,31,17.90
2018,06,11,16,32,17.90
2018,06,11,16,33,17.90
2018,06,11,16,34,17.80
2018,06,11,16,35,17.80
2018,06,11,16,36,17.80
2018,06,11,16,37,17.70
2018,06,11,16,38,17.80
2018,06,11,16,39,17.80
2018,06,11,16,40,17.80
2018,06,11,16,41,17.80
2018,06,11,16,42,17.80
2018,06,11,16,43,17.80
2018,06,11,16,44,17.80
2018,06,11,16,45,17.80
2018,06,11,16,46,17.70
2018,06,11,16,47,17.80
2018,06,11,16,48,17.80
2018,06,11,16,49,17.80
2018,06,11,16,50,17.90
2018,06,11,16,51,17.90
2018,06,11,16,52,17.90
2018,06,11,16,53,17.90
2018,06,11,16,54,17.90
2018,06,11,16,55,17.90
2018,06,11,16,56,17.90
2018,06,11,16,57,17.90
2018,06,11,16,58,17.90
2018,06,11,16,59,17.90
2018,06,11,17,00,17.90
2018,06,11,17,01,18.00
2018,06,11,17,02,18.00
2018,06,11,17,03,18.10
2018,06,11,17,04,18.10
2018,06,11,17,05,18.00
2018,06,11,17,06,17.90
2018,06,11,17,07,17.90
2018,06,11,17,08,17.90
2018,06,11,17,09,17.80
2018,06,11,17,10,17.80
2018,06,11,17,11,17.80
2018,06,11,17,12,17.80
2018,06,11,17,13,17.80
2018,06,11,17,14,17.80
2018,06,11,17,15,17.80
2018,06,11,17,16,17.90
2018,06,11,17,17,17.90
2018,06,11,17,18,17.90
2018,06,11,17,19,17.90
2018,06,11,17,20,18.00
2018,06,11,17,21,18.00
2018,06,11,17,22,18.10
2018,06,11,17,23,18.10
2018,06,11,17,24,18.10
2018,06,11,17,25,18.10
2018,06,11,17,26,18.10
2018,06,11,17,27,18.10
2018,06,11,17,28,18.10
2018,06,11,17,29,18.20
2018,06,11,17,30,18.20
2018,06,11,17,31,18.20
2018,06,11,17,32,18.20
2018,06,11,17,33,18.20
2018,06,11,17,34,18.20
2018,06,11,17,35,18.30
2018,06,11,17,36,18.30
2018,06,11,17,37,18.30
2018,06,11,17,38,18.30